Location: Izdebno
(52.6670°N, 16.2170°E)
Time: 15:40:53
(UTC+01:00)

deb Explorer IX - All Passes

Search period start: 27 January 2023 00:00
Search period end: 06 February 2023 00:00
Orbit: 533 x 1050 km, 38.8° (Epoch: 24 January)

Date Brightness Start Highest point End Pass type
(mag) Time Alt. Az. Time Alt. Az. Time Alt. Az.
27 Jan - 08:16:37 10° SSW 08:18:31 13° S 08:20:29 10° SE daylight
27 Jan - 10:01:36 10° SW 10:03:31 12° S 10:05:31 10° SSE daylight
28 Jan - 07:44:35 10° SSW 07:46:11 12° S 07:47:49 10° SSE daylight
28 Jan - 09:29:24 10° SSW 09:31:09 12° S 09:32:59 10° SSE daylight
29 Jan - 07:12:34 10° S 07:13:50 11° S 07:15:08 10° SSE daylight
29 Jan - 08:57:10 10° SSW 08:58:47 12° S 09:00:28 10° SSE daylight
30 Jan - 06:40:35 10° S 06:41:28 11° S 06:42:23 10° SSE visible
30 Jan - 08:24:54 10° SSW 08:26:25 12° S 08:27:57 10° SSE daylight
31 Jan - 06:08:47 10° S 06:09:05 10° SSE 06:09:24 10° SSE visible
31 Jan - 07:52:36 10° SSW 07:54:00 12° S 07:55:28 10° SSE daylight
01 Feb - 07:20:13 10° SSW 07:21:36 11° S 07:22:59 10° SSE daylight
02 Feb - 06:47:48 10° SSW 06:49:10 11° S 06:50:33 10° SSE visible
03 Feb - 06:15:18 10° SSW 06:16:43 12° S 06:18:07 10° SSE visible
04 Feb - 05:42:44 10° SSW 05:44:14 12° S 05:45:43 10° SSE visible
05 Feb - 05:10:07 10° SSW 05:11:44 12° S 05:13:19 10° SSE visible
